Weather History for London, United Kingdom

Change the Weather History Date:

Sunday, September 14, 2014

  Actual Average Record
Temperature  
Mean Temperature 62 °F -  
Max Temperature 70 °F 62 °F 78 °F (2003)
Min Temperature 54 °F 49 °F 44 °F (1996)
Degree Days  
Heating Degree Days 3    
Growing Degree Days 12 (Base 50)    
Moisture  
Dew Point 53 °F    
Average Humidity 73    
Maximum Humidity 94    
Minimum Humidity 45    
Precipitation  
Precipitation 0.00 in - - ()
Sea Level Pressure  
Sea Level Pressure 30.20 in    
Wind  
Wind Speed 7 mph ()    
Max Wind Speed 15 mph    
Max Gust Speed -    
Visibility 7.5 miles    
Events Rain    
Averages and records for this station are not official NWS values.
T = Trace of Precipitation, MM = Missing Value Source: Averaged Metar Reports

Daily Weather History Graph

Daily Weather History Graph

Search for Another Location

Airport:

Trip Planner

Search our weather history database for the weather conditions in past years. The results will help you decide how hot, cold, wet, or windy it might be!

Date:

Astronomy

Sep. 14, 2014 Rise Set
Actual Time 6:34 AM BST 7:18 PM BST
Civil Twilight 6:01 AM BST 7:52 PM BST
Nautical Twilight 5:20 AM BST 8:32 PM BST
Astronomical Twilight 4:37 AM BST 9:15 PM BST
Moon 10:19 PM BST (9/14) 1:05 PM BST (9/14)
Length of Visible Light 13h 51m
Length of Day
12h 44m
Waning Gibbous, 66% of the Moon is Illuminated
Sep 14
Waning Gibbous
Sep 16
Last Quarter
Sep 24
New
Oct 1
First Quarter
Oct 8
Full

Hourly Weather History & Observations

Time (BST) Temp. Dew Point Humidity Pressure Visibility Wind Dir Wind Speed Gust Speed Precip Events Conditions
12:00 AM 58 °F 51 °F 70% 30.32 in 10 mi NE 8.1 mph - -  
12:20 AM 57.2 °F 51.8 °F 82% 30.30 in - NE 4.6 mph - N/A   Clear
12:50 AM 57.2 °F 51.8 °F 82% 30.30 in - NE 4.6 mph - N/A   Clear
1:00 AM 57 °F 51 °F 73% 30.31 in 9 mi NE 5.8 mph - -  
1:20 AM 55.4 °F 51.8 °F 88% 30.30 in 5.6 mi NE 4.6 mph - N/A   Unknown
1:50 AM 55.4 °F 51.8 °F 88% 30.30 in 5.0 mi NE 5.8 mph - N/A   Unknown
2:00 AM 55 °F 50 °F 78% 30.30 in 7 mi NNE 4.6 mph - -  
2:20 AM 55.4 °F 51.8 °F 88% 30.30 in 5.0 mi NE 5.8 mph - N/A   Scattered Clouds
2:50 AM 55.4 °F 51.8 °F 88% 30.27 in 5.0 mi NE 4.6 mph - N/A   Scattered Clouds
3:00 AM 55 °F 50 °F 78% 30.29 in 8 mi North 3.5 mph - -   Scattered Clouds
3:20 AM 55.4 °F 51.8 °F 88% 30.27 in 4.3 mi North 3.5 mph - N/A   Partly Cloudy
3:50 AM 55.4 °F 51.8 °F 88% 30.27 in 4.3 mi North 4.6 mph - N/A   Partly Cloudy
4:00 AM 55 °F 50 °F 78% 30.28 in 7 mi North 3.5 mph - -   Scattered Clouds
4:20 AM 55.4 °F 51.8 °F 88% 30.27 in 4.3 mi Variable 3.5 mph - N/A   Mostly Cloudy
4:50 AM 53.6 °F 51.8 °F 94% 30.27 in 3.7 mi North 3.5 mph - N/A   Partly Cloudy
5:00 AM 54 °F 50 °F 82% 30.27 in 6 mi North 3.5 mph - -  
5:20 AM 53.6 °F 51.8 °F 94% 30.24 in 4.3 mi NE 4.6 mph - N/A   Partly Cloudy
5:50 AM 55.4 °F 51.8 °F 88% 30.24 in 4.3 mi NE 5.8 mph - N/A   Partly Cloudy
6:00 AM 54 °F 51 °F 87% 30.25 in 6 mi NNE 4.6 mph - -   Light Haze
6:20 AM 55.4 °F 53.6 °F 94% 30.24 in 3.7 mi NE 6.9 mph - N/A   Mostly Cloudy
6:50 AM 55.4 °F 53.6 °F 94% 30.24 in 3.7 mi NE 5.8 mph - N/A   Partly Cloudy
7:00 AM 56 °F 53 °F 86% 30.25 in 6 mi NE 6.9 mph - -   Light Haze
7:20 AM 57.2 °F 53.6 °F 88% 30.24 in 3.7 mi NE 6.9 mph - N/A   Partly Cloudy
7:50 AM 57.2 °F 53.6 °F 88% 30.24 in 4.3 mi ENE 6.9 mph - N/A   Partly Cloudy
8:00 AM 58 °F 54 °F 80% 30.24 in 7 mi NE 8.1 mph - -   Scattered Clouds
8:20 AM 59.0 °F 55.4 °F 88% 30.24 in 4.3 mi ENE 9.2 mph - N/A   Partly Cloudy
8:50 AM 60.8 °F 55.4 °F 82% 30.24 in 5.0 mi ENE 10.4 mph - N/A   Partly Cloudy
9:00 AM 60 °F 54 °F 74% 30.24 in 9 mi ENE 10.4 mph - -   Partly Cloudy
9:20 AM 62.6 °F 55.4 °F 77% 30.24 in 6.2 mi ENE 9.2 mph - N/A   Partly Cloudy
9:50 AM 62.6 °F 55.4 °F 77% 30.24 in 6.2 mi ENE 10.4 mph - N/A   Partly Cloudy
10:00 AM 64 °F 54 °F 63% 30.24 in 11 mi ENE 10.4 mph - -  
10:20 AM 64.4 °F 55.4 °F 73% 30.21 in 6.2 mi ENE 10.4 mph - N/A   Partly Cloudy
10:50 AM 64.4 °F 55.4 °F 73% 30.21 in 6.2 mi NE 9.2 mph - N/A   Scattered Clouds
11:00 AM 64 °F 54 °F 63% 30.22 in 11 mi ENE 9.2 mph - -   Scattered Clouds
11:20 AM 66.2 °F 55.4 °F 68% 30.21 in 6.2 mi ENE 10.4 mph - N/A   Scattered Clouds
11:50 AM 66.2 °F 55.4 °F 68% 30.21 in 6.2 mi ENE 12.7 mph - N/A   Scattered Clouds
12:00 PM 67 °F 55 °F 55% 30.21 in 14 mi ENE 11.5 mph - -   Scattered Clouds
12:20 PM 69.8 °F 53.6 °F 56% 30.18 in 6.2 mi East 12.7 mph - N/A   Partly Cloudy
12:50 PM 69.8 °F 53.6 °F 56% 30.18 in 6.2 mi East 11.5 mph - N/A   Scattered Clouds
1:00 PM 68 °F 53 °F 49% 30.19 in 14 mi ENE 12.7 mph - -   Scattered Clouds
1:20 PM 68.0 °F 55.4 °F 64% 30.18 in 6.2 mi ENE 11.5 mph - N/A   Scattered Clouds
1:50 PM 68.0 °F 53.6 °F 60% 30.18 in 6.2 mi East 11.5 mph - N/A   Partly Cloudy
2:00 PM 67 °F 54 °F 52% 30.18 in 12 mi East 11.5 mph - - Rain Light Rain Showers
2:20 PM 66.2 °F 55.4 °F 68% 30.15 in 6.2 mi East 11.5 mph - N/A   Partly Cloudy
2:50 PM 68.0 °F 55.4 °F 64% 30.15 in 6.2 mi East 11.5 mph - N/A   Partly Cloudy
3:00 PM 69 °F 54 °F 50% 30.16 in 16 mi East 10.4 mph - - Rain Rain
3:20 PM 68.0 °F 53.6 °F 60% 30.15 in 6.2 mi ENE 10.4 mph - N/A   Partly Cloudy
3:50 PM 69.8 °F 55.4 °F 60% 30.12 in 6.2 mi ENE 10.4 mph - N/A   Partly Cloudy
4:00 PM 69 °F 52 °F 45% 30.14 in 14 mi ENE 10.4 mph - -   Scattered Clouds
4:20 PM 68.0 °F 53.6 °F 60% 30.12 in 6.2 mi ENE 11.5 mph - N/A   Partly Cloudy
4:50 PM 68.0 °F 53.6 °F 60% 30.12 in 6.2 mi ENE 13.8 mph - N/A   Partly Cloudy
5:00 PM 68 °F 52 °F 47% 30.13 in 13 mi ENE 15.0 mph - -   Partly Cloudy
5:20 PM 68.0 °F 55.4 °F 64% 30.12 in 6.2 mi ENE 12.7 mph - N/A   Partly Cloudy
5:50 PM 68.0 °F 53.6 °F 60% 30.12 in 6.2 mi ENE 12.7 mph - N/A   Partly Cloudy
6:00 PM 67 °F 52 °F 49% 30.12 in 18 mi ENE 11.5 mph - -   Scattered Clouds
6:20 PM 66.2 °F 53.6 °F 64% 30.12 in 6.2 mi East 12.7 mph - N/A   Partly Cloudy
6:50 PM 66.2 °F 53.6 °F 64% 30.12 in 6.2 mi ENE 8.1 mph - N/A   Partly Cloudy
7:00 PM 66 °F 53 °F 53% 30.12 in 13 mi ENE 8.1 mph - -   Partly Cloudy
7:20 PM 64.4 °F 53.6 °F 68% 30.12 in 6.2 mi East 10.4 mph - N/A   Partly Cloudy
7:50 PM 62.6 °F 53.6 °F 72% 30.12 in - ENE 8.1 mph - N/A   Clear
8:00 PM 63 °F 53 °F 60% 30.12 in 12 mi ENE 8.1 mph - -  
8:20 PM 62.6 °F 53.6 °F 72% 30.12 in - ENE 8.1 mph - N/A   Clear
8:50 PM 62.6 °F 53.6 °F 72% 30.12 in - East 9.2 mph - N/A   Clear
9:00 PM 62 °F 53 °F 64% 30.13 in 13 mi ENE 8.1 mph - -  
9:20 PM 60.8 °F 53.6 °F 77% 30.12 in - ENE 8.1 mph - N/A   Clear
9:50 PM 60.8 °F 53.6 °F 77% 30.12 in - ENE 8.1 mph - N/A   Clear
10:00 PM 61 °F 53 °F 68% 30.13 in 12 mi ENE 8.1 mph - -  
10:20 PM 59.0 °F 53.6 °F 82% 30.12 in - ENE 6.9 mph - N/A   Clear
10:50 PM 59.0 °F 53.6 °F 82% 30.12 in 6.2 mi ENE 6.9 mph - N/A   Partly Cloudy
11:00 PM 59 °F 53 °F 73% 30.13 in 11 mi NE 5.8 mph - -  
11:20 PM 59.0 °F 53.6 °F 82% 30.12 in - NE 5.8 mph - N/A   Clear
11:50 PM 57.2 °F 53.6 °F 88% 30.12 in - NE 5.8 mph - N/A   Clear